Year,Month,Day,Hour,Minute,Value (Times are PST for temperature in C)
2017,07,06,00,00,17.60
2017,07,06,00,01,17.60
2017,07,06,00,02,17.50
2017,07,06,00,03,17.40
2017,07,06,00,04,17.40
2017,07,06,00,05,17.30
2017,07,06,00,06,17.30
2017,07,06,00,07,17.30
2017,07,06,00,08,17.30
2017,07,06,00,09,17.30
2017,07,06,00,10,17.30
2017,07,06,00,11,17.40
2017,07,06,00,12,17.40
2017,07,06,00,13,17.40
2017,07,06,00,14,17.40
2017,07,06,00,15,17.40
2017,07,06,00,16,17.30
2017,07,06,00,17,17.30
2017,07,06,00,18,17.20
2017,07,06,00,19,17.10
2017,07,06,00,20,17.10
2017,07,06,00,21,17.00
2017,07,06,00,22,16.90
2017,07,06,00,23,16.80
2017,07,06,00,24,16.80
2017,07,06,00,25,16.70
2017,07,06,00,26,16.70
2017,07,06,00,27,16.70
2017,07,06,00,28,16.60
2017,07,06,00,29,16.60
2017,07,06,00,30,16.60
2017,07,06,00,31,16.60
2017,07,06,00,32,16.50
2017,07,06,00,33,16.50
2017,07,06,00,34,16.40
2017,07,06,00,35,16.40
2017,07,06,00,36,16.30
2017,07,06,00,37,16.30
2017,07,06,00,38,16.20
2017,07,06,00,39,16.20
2017,07,06,00,40,16.20
2017,07,06,00,41,16.20
2017,07,06,00,42,16.10
2017,07,06,00,43,16.10
2017,07,06,00,44,16.00
2017,07,06,00,45,16.00
2017,07,06,00,46,15.90
2017,07,06,00,47,15.90
2017,07,06,00,48,15.80
2017,07,06,00,49,15.80
2017,07,06,00,50,15.80
2017,07,06,00,51,15.80
2017,07,06,00,52,15.80
2017,07,06,00,53,15.80
2017,07,06,00,54,15.80
2017,07,06,00,55,15.90
2017,07,06,00,56,15.90
2017,07,06,00,57,15.90
2017,07,06,00,58,16.00
2017,07,06,00,59,16.00
2017,07,06,01,00,16.10
2017,07,06,01,01,16.10
2017,07,06,01,02,16.10
2017,07,06,01,03,16.10
2017,07,06,01,04,16.20
2017,07,06,01,05,16.20
2017,07,06,01,06,16.20
2017,07,06,01,07,16.20
2017,07,06,01,08,16.20
2017,07,06,01,09,16.20
2017,07,06,01,10,16.20
2017,07,06,01,11,16.20
2017,07,06,01,12,16.20
2017,07,06,01,13,16.30
2017,07,06,01,14,16.30
2017,07,06,01,15,16.30
2017,07,06,01,16,16.20
2017,07,06,01,17,16.20
2017,07,06,01,18,16.20
2017,07,06,01,19,16.10
2017,07,06,01,20,16.10
2017,07,06,01,21,16.10
2017,07,06,01,22,16.00
2017,07,06,01,23,16.00
2017,07,06,01,24,15.90
2017,07,06,01,25,15.80
2017,07,06,01,26,15.80
2017,07,06,01,27,15.70
2017,07,06,01,28,15.70
2017,07,06,01,29,15.60
2017,07,06,01,30,15.60
2017,07,06,01,31,15.60
2017,07,06,01,32,15.60
2017,07,06,01,33,15.60
2017,07,06,01,34,15.60
2017,07,06,01,35,15.50
2017,07,06,01,36,15.50
2017,07,06,01,37,15.60
2017,07,06,01,38,15.60
2017,07,06,01,39,15.60
2017,07,06,01,40,15.60
2017,07,06,01,41,15.60
2017,07,06,01,42,15.60
2017,07,06,01,43,15.60
2017,07,06,01,44,15.60
2017,07,06,01,45,15.60
2017,07,06,01,46,15.60
2017,07,06,01,47,15.70
2017,07,06,01,48,15.70
2017,07,06,01,49,15.70
2017,07,06,01,50,15.70
2017,07,06,01,51,15.70
2017,07,06,01,52,15.70
2017,07,06,01,53,15.70
2017,07,06,01,54,15.70
2017,07,06,01,55,15.70
2017,07,06,01,56,15.70
2017,07,06,01,57,15.70
2017,07,06,01,58,15.70
2017,07,06,01,59,15.70
2017,07,06,02,00,15.70
2017,07,06,02,01,15.70
2017,07,06,02,02,15.60
2017,07,06,02,03,15.60
2017,07,06,02,04,15.60
2017,07,06,02,05,15.70
2017,07,06,02,06,15.70
2017,07,06,02,07,15.70
2017,07,06,02,08,15.70
2017,07,06,02,09,15.70
2017,07,06,02,10,15.70
2017,07,06,02,11,15.70
2017,07,06,02,12,15.60
2017,07,06,02,13,15.60
2017,07,06,02,14,15.50
2017,07,06,02,15,15.50
2017,07,06,02,16,15.40
2017,07,06,02,17,15.40
2017,07,06,02,18,15.30
2017,07,06,02,19,15.20
2017,07,06,02,20,15.20
2017,07,06,02,21,15.10
2017,07,06,02,22,15.00
2017,07,06,02,23,15.00
2017,07,06,02,24,15.00
2017,07,06,02,25,15.00
2017,07,06,02,26,15.00
2017,07,06,02,27,15.00
2017,07,06,02,28,15.00
2017,07,06,02,29,15.00
2017,07,06,02,30,15.00
2017,07,06,02,31,14.90
2017,07,06,02,32,14.80
2017,07,06,02,33,14.80
2017,07,06,02,34,14.70
2017,07,06,02,35,14.70
2017,07,06,02,36,14.70
2017,07,06,02,37,14.70
2017,07,06,02,38,14.70
2017,07,06,02,39,14.70
2017,07,06,02,40,14.70
2017,07,06,02,41,14.70
2017,07,06,02,42,14.70
2017,07,06,02,43,14.70
2017,07,06,02,44,14.70
2017,07,06,02,45,14.70
2017,07,06,02,46,14.70
2017,07,06,02,47,14.60
2017,07,06,02,48,14.60
2017,07,06,02,49,14.60
2017,07,06,02,50,14.60
2017,07,06,02,51,14.60
2017,07,06,02,52,14.60
2017,07,06,02,53,14.50
2017,07,06,02,54,14.50
2017,07,06,02,55,14.40
2017,07,06,02,56,14.40
2017,07,06,02,57,14.50
2017,07,06,02,58,14.50
2017,07,06,02,59,14.50
2017,07,06,03,00,14.60
2017,07,06,03,01,14.60
2017,07,06,03,02,14.60
2017,07,06,03,03,14.70
2017,07,06,03,04,14.70
2017,07,06,03,05,14.70
2017,07,06,03,06,14.70
2017,07,06,03,07,14.70
2017,07,06,03,08,14.60
2017,07,06,03,09,14.60
2017,07,06,03,10,14.50
2017,07,06,03,11,14.40
2017,07,06,03,12,14.40
2017,07,06,03,13,14.40
2017,07,06,03,14,14.30
2017,07,06,03,15,14.30
2017,07,06,03,16,14.30
2017,07,06,03,17,14.30
2017,07,06,03,18,14.20
2017,07,06,03,19,14.20
2017,07,06,03,20,14.10
2017,07,06,03,21,14.10
2017,07,06,03,22,14.00
2017,07,06,03,23,14.00
2017,07,06,03,24,13.90
2017,07,06,03,25,13.90
2017,07,06,03,26,13.90
2017,07,06,03,27,13.80
2017,07,06,03,28,13.80
2017,07,06,03,29,13.80
2017,07,06,03,30,13.80
2017,07,06,03,31,13.80
2017,07,06,03,32,13.80
2017,07,06,03,33,13.70
2017,07,06,03,34,13.70
2017,07,06,03,35,13.70
2017,07,06,03,36,13.70
2017,07,06,03,37,13.70
2017,07,06,03,38,13.70
2017,07,06,03,39,13.70
2017,07,06,03,40,13.70
2017,07,06,03,41,13.60
2017,07,06,03,42,13.60
2017,07,06,03,43,13.60
2017,07,06,03,44,13.60
2017,07,06,03,45,13.60
2017,07,06,03,46,13.60
2017,07,06,03,47,13.60
2017,07,06,03,48,13.70
2017,07,06,03,49,13.70
2017,07,06,03,50,13.70
2017,07,06,03,51,13.70
2017,07,06,03,52,13.70
2017,07,06,03,53,13.70
2017,07,06,03,54,13.70
2017,07,06,03,55,13.70
2017,07,06,03,56,13.70
2017,07,06,03,57,13.70
2017,07,06,03,58,13.80
2017,07,06,03,59,13.80
2017,07,06,04,00,13.80
2017,07,06,04,01,13.90
2017,07,06,04,02,13.90
2017,07,06,04,03,13.90
2017,07,06,04,04,13.90
2017,07,06,04,05,13.90
2017,07,06,04,06,13.90
2017,07,06,04,07,13.90
2017,07,06,04,08,13.90
2017,07,06,04,09,13.90
2017,07,06,04,10,13.80
2017,07,06,04,11,13.80
2017,07,06,04,12,13.80
2017,07,06,04,13,13.80
2017,07,06,04,14,13.70
2017,07,06,04,15,13.70
2017,07,06,04,16,13.70
2017,07,06,04,17,13.60
2017,07,06,04,18,13.60
2017,07,06,04,19,13.60
2017,07,06,04,20,13.60
2017,07,06,04,21,13.50
2017,07,06,04,22,13.50
2017,07,06,04,23,13.50
2017,07,06,04,24,13.50
2017,07,06,04,25,13.40
2017,07,06,04,26,13.40
2017,07,06,04,27,13.40
2017,07,06,04,28,13.40
2017,07,06,04,29,13.40
2017,07,06,04,30,13.40
2017,07,06,04,31,13.30
2017,07,06,04,32,13.30
2017,07,06,04,33,13.30
2017,07,06,04,34,13.30
2017,07,06,04,35,13.30
2017,07,06,04,36,13.30
2017,07,06,04,37,13.30
2017,07,06,04,38,13.30
2017,07,06,04,39,13.30
2017,07,06,04,40,13.30
2017,07,06,04,41,13.30
2017,07,06,04,42,13.30
2017,07,06,04,43,13.30
2017,07,06,04,44,13.30
2017,07,06,04,45,13.20
2017,07,06,04,46,13.20
2017,07,06,04,47,13.20
2017,07,06,04,48,13.20
2017,07,06,04,49,13.20
2017,07,06,04,50,13.20
2017,07,06,04,51,13.20
2017,07,06,04,52,13.20
2017,07,06,04,53,13.20
2017,07,06,04,54,13.10
2017,07,06,04,55,13.10
2017,07,06,04,56,13.10
2017,07,06,04,57,13.00
2017,07,06,04,58,13.00
2017,07,06,04,59,13.00
2017,07,06,05,00,13.00
2017,07,06,05,01,13.00
2017,07,06,05,02,13.00
2017,07,06,05,03,13.00
2017,07,06,05,04,13.00
2017,07,06,05,05,13.00
2017,07,06,05,06,13.00
2017,07,06,05,07,13.00
2017,07,06,05,08,13.00
2017,07,06,05,09,13.00
2017,07,06,05,10,13.00
2017,07,06,05,11,13.00
2017,07,06,05,12,13.00
2017,07,06,05,13,13.00
2017,07,06,05,14,13.00
2017,07,06,05,15,13.00
2017,07,06,05,16,13.00
2017,07,06,05,17,13.00
2017,07,06,05,18,13.00
2017,07,06,05,19,13.00
2017,07,06,05,20,12.90
2017,07,06,05,21,12.90
2017,07,06,05,22,12.90
2017,07,06,05,23,12.90
2017,07,06,05,24,12.90
2017,07,06,05,25,12.90
2017,07,06,05,26,12.90
2017,07,06,05,27,12.90
2017,07,06,05,28,12.90
2017,07,06,05,29,12.90
2017,07,06,05,30,12.90
2017,07,06,05,31,12.90
2017,07,06,05,32,12.80
2017,07,06,05,33,12.80
2017,07,06,05,34,12.80
2017,07,06,05,35,12.80
2017,07,06,05,36,12.80
2017,07,06,05,37,12.80
2017,07,06,05,38,12.80
2017,07,06,05,39,12.80
2017,07,06,05,40,12.80
2017,07,06,05,41,12.80
2017,07,06,05,42,12.80
2017,07,06,05,43,12.80
2017,07,06,05,44,12.80
2017,07,06,05,45,12.80
2017,07,06,05,46,12.80
2017,07,06,05,47,12.80
2017,07,06,05,48,12.80
2017,07,06,05,49,12.80
2017,07,06,05,50,12.80
2017,07,06,05,51,12.80
2017,07,06,05,52,12.80
2017,07,06,05,53,12.80
2017,07,06,05,54,12.80
2017,07,06,05,55,12.80
2017,07,06,05,56,12.80
2017,07,06,05,57,12.70
2017,07,06,05,58,12.70
2017,07,06,05,59,12.70
2017,07,06,06,00,12.70
2017,07,06,06,01,12.70
2017,07,06,06,02,12.60
2017,07,06,06,03,12.60
2017,07,06,06,04,12.70
2017,07,06,06,05,12.70
2017,07,06,06,06,12.70
2017,07,06,06,07,12.70
2017,07,06,06,08,12.70
2017,07,06,06,09,12.80
2017,07,06,06,10,12.80
2017,07,06,06,11,12.80
2017,07,06,06,12,12.80
2017,07,06,06,13,12.80
2017,07,06,06,14,12.80
2017,07,06,06,15,12.90
2017,07,06,06,16,12.90
2017,07,06,06,17,12.90
2017,07,06,06,18,13.00
2017,07,06,06,19,13.00
2017,07,06,06,20,13.10
2017,07,06,06,21,13.10
2017,07,06,06,22,13.10
2017,07,06,06,23,13.20
2017,07,06,06,24,13.20
2017,07,06,06,25,13.20
2017,07,06,06,26,13.30
2017,07,06,06,27,13.30
2017,07,06,06,28,13.30
2017,07,06,06,29,13.40
2017,07,06,06,30,13.40
2017,07,06,06,31,13.40
2017,07,06,06,32,13.50
2017,07,06,06,33,13.50
2017,07,06,06,34,13.50
2017,07,06,06,35,13.60
2017,07,06,06,36,13.60
2017,07,06,06,37,13.70
2017,07,06,06,38,13.70
2017,07,06,06,39,13.70
2017,07,06,06,40,13.80
2017,07,06,06,41,13.80
2017,07,06,06,42,13.80
2017,07,06,06,43,13.90
2017,07,06,06,44,13.90
2017,07,06,06,45,14.00
2017,07,06,06,46,14.00
2017,07,06,06,47,14.10
2017,07,06,06,48,14.10
2017,07,06,06,49,14.20
2017,07,06,06,50,14.20
2017,07,06,06,51,14.30
2017,07,06,06,52,14.30
2017,07,06,06,53,14.40
2017,07,06,06,54,14.40
2017,07,06,06,55,14.50
2017,07,06,06,56,14.50
2017,07,06,06,57,14.60
2017,07,06,06,58,14.70
2017,07,06,06,59,14.70
2017,07,06,07,00,14.80
2017,07,06,07,01,14.90
2017,07,06,07,02,15.00
2017,07,06,07,03,15.00
2017,07,06,07,04,15.00
2017,07,06,07,05,15.00
2017,07,06,07,06,15.00
2017,07,06,07,07,15.20
2017,07,06,07,08,15.30
2017,07,06,07,09,15.40
2017,07,06,07,10,15.40
2017,07,06,07,11,15.50
2017,07,06,07,12,15.60
2017,07,06,07,13,15.60
2017,07,06,07,14,15.70
2017,07,06,07,15,15.80
2017,07,06,07,16,15.90
2017,07,06,07,17,15.90
2017,07,06,07,18,16.00
2017,07,06,07,19,16.10
2017,07,06,07,20,16.20
2017,07,06,07,21,16.20
2017,07,06,07,22,16.30
2017,07,06,07,23,16.40
2017,07,06,07,24,16.50
2017,07,06,07,25,16.60
2017,07,06,07,26,16.70
2017,07,06,07,27,16.80
2017,07,06,07,28,16.80
2017,07,06,07,29,16.90
2017,07,06,07,30,17.00
2017,07,06,07,31,17.10
2017,07,06,07,32,17.20
2017,07,06,07,33,17.20
2017,07,06,07,34,17.30
2017,07,06,07,35,17.40
2017,07,06,07,36,17.50
2017,07,06,07,37,17.60
2017,07,06,07,38,17.70
2017,07,06,07,39,17.80
2017,07,06,07,40,17.90
2017,07,06,07,41,18.00
2017,07,06,07,42,18.10
2017,07,06,07,43,18.20
2017,07,06,07,44,18.20
2017,07,06,07,45,18.30
2017,07,06,07,46,18.40
2017,07,06,07,47,18.50
2017,07,06,07,48,18.60
2017,07,06,07,49,18.70
2017,07,06,07,50,18.80
2017,07,06,07,51,18.90
2017,07,06,07,52,19.00
2017,07,06,07,53,19.00
2017,07,06,07,54,19.10
2017,07,06,07,55,19.10
2017,07,06,07,56,19.10
2017,07,06,07,57,19.20
2017,07,06,07,58,19.20
2017,07,06,07,59,19.20
2017,07,06,08,00,19.20
2017,07,06,08,01,19.30
2017,07,06,08,02,19.30
2017,07,06,08,03,19.40
2017,07,06,08,04,19.40
2017,07,06,08,05,19.40
2017,07,06,08,06,19.40
2017,07,06,08,07,19.40
2017,07,06,08,08,19.40
2017,07,06,08,09,19.40
2017,07,06,08,10,19.50
2017,07,06,08,11,19.50
2017,07,06,08,12,19.60
2017,07,06,08,13,19.70
2017,07,06,08,14,19.70
2017,07,06,08,15,19.80
2017,07,06,08,16,19.80
2017,07,06,08,17,19.80
2017,07,06,08,18,19.90
2017,07,06,08,19,19.90
2017,07,06,08,20,19.90
2017,07,06,08,21,19.90
2017,07,06,08,22,19.90
2017,07,06,08,23,19.90
2017,07,06,08,24,19.90
2017,07,06,08,25,19.90
2017,07,06,08,26,19.90
2017,07,06,08,27,19.90
2017,07,06,08,28,19.90
2017,07,06,08,29,19.90
2017,07,06,08,30,19.90
2017,07,06,08,31,19.90
2017,07,06,08,32,19.90
2017,07,06,08,33,20.00
2017,07,06,08,34,20.10
2017,07,06,08,35,20.20
2017,07,06,08,36,20.30
2017,07,06,08,37,20.30
2017,07,06,08,38,20.30
2017,07,06,08,39,20.30
2017,07,06,08,40,20.30
2017,07,06,08,41,20.40
2017,07,06,08,42,20.40
2017,07,06,08,43,20.40
2017,07,06,08,44,20.40
2017,07,06,08,45,20.40
2017,07,06,08,46,20.40
2017,07,06,08,47,20.30
2017,07,06,08,48,20.20
2017,07,06,08,49,20.20
2017,07,06,08,50,20.10
2017,07,06,08,51,20.10
2017,07,06,08,52,20.10
2017,07,06,08,53,20.10
2017,07,06,08,54,20.10
2017,07,06,08,55,20.00
2017,07,06,08,56,20.00
2017,07,06,08,57,20.10
2017,07,06,08,58,20.10
2017,07,06,08,59,20.00
2017,07,06,09,00,20.00
2017,07,06,09,01,20.00
2017,07,06,09,02,19.90
2017,07,06,09,03,19.90
2017,07,06,09,04,19.90
2017,07,06,09,05,20.00
2017,07,06,09,06,20.00
2017,07,06,09,07,19.90
2017,07,06,09,08,19.80
2017,07,06,09,09,19.80
2017,07,06,09,10,19.80
2017,07,06,09,11,19.90
2017,07,06,09,12,19.90
2017,07,06,09,13,20.00
2017,07,06,09,14,20.00
2017,07,06,09,15,20.10
2017,07,06,09,16,20.10
2017,07,06,09,17,20.10
2017,07,06,09,18,20.10
2017,07,06,09,19,20.10
2017,07,06,09,20,20.10
2017,07,06,09,21,20.20
2017,07,06,09,22,20.20
2017,07,06,09,23,20.20
2017,07,06,09,24,20.30
2017,07,06,09,25,20.30
2017,07,06,09,26,20.30
2017,07,06,09,27,20.30
2017,07,06,09,28,20.30
2017,07,06,09,29,20.20
2017,07,06,09,30,20.10
2017,07,06,09,31,20.10
2017,07,06,09,32,20.10
2017,07,06,09,33,20.10
2017,07,06,09,34,20.20
2017,07,06,09,35,20.30
2017,07,06,09,36,20.20
2017,07,06,09,37,20.10
2017,07,06,09,38,20.10
2017,07,06,09,39,20.10
2017,07,06,09,40,20.10
2017,07,06,09,41,20.00
2017,07,06,09,42,20.00
2017,07,06,09,43,20.00
2017,07,06,09,44,20.00
2017,07,06,09,45,20.00
2017,07,06,09,46,19.90
2017,07,06,09,47,19.90
2017,07,06,09,48,19.90
2017,07,06,09,49,19.90
2017,07,06,09,50,19.90
2017,07,06,09,51,20.00
2017,07,06,09,52,20.00
2017,07,06,09,53,20.00
2017,07,06,09,54,19.90
2017,07,06,09,55,19.90
2017,07,06,09,56,19.90
2017,07,06,09,57,20.00
2017,07,06,09,58,20.10
2017,07,06,09,59,20.10
2017,07,06,10,00,20.10
2017,07,06,10,01,20.20
2017,07,06,10,02,20.20
2017,07,06,10,03,20.30
2017,07,06,10,04,20.30
2017,07,06,10,05,20.40
2017,07,06,10,06,20.50
2017,07,06,10,07,20.50
2017,07,06,10,08,20.50
2017,07,06,10,09,20.50
2017,07,06,10,10,20.50
2017,07,06,10,11,20.60
2017,07,06,10,12,20.60
2017,07,06,10,13,20.70
2017,07,06,10,14,20.80
2017,07,06,10,15,20.70
2017,07,06,10,16,20.70
2017,07,06,10,17,20.70
2017,07,06,10,18,20.70
2017,07,06,10,19,20.70
2017,07,06,10,20,20.80
2017,07,06,10,21,20.80
2017,07,06,10,22,20.70
2017,07,06,10,23,20.70
2017,07,06,10,24,20.70
2017,07,06,10,25,20.70
2017,07,06,10,26,20.60
2017,07,06,10,27,20.50
2017,07,06,10,28,20.40
2017,07,06,10,29,20.40
2017,07,06,10,30,20.30
2017,07,06,10,31,20.20
2017,07,06,10,32,20.20
2017,07,06,10,33,20.30
2017,07,06,10,34,20.40
2017,07,06,10,35,20.50
2017,07,06,10,36,20.60
2017,07,06,10,37,20.70
2017,07,06,10,38,20.80
2017,07,06,10,39,20.80
2017,07,06,10,40,20.90
2017,07,06,10,41,21.00
2017,07,06,10,42,21.00
2017,07,06,10,43,21.00
2017,07,06,10,44,21.10
2017,07,06,10,45,21.20
2017,07,06,10,46,21.30
2017,07,06,10,47,21.30
2017,07,06,10,48,21.40
2017,07,06,10,49,21.40
2017,07,06,10,50,21.40
2017,07,06,10,51,21.40
2017,07,06,10,52,21.40
2017,07,06,10,53,21.40
2017,07,06,10,54,21.50
2017,07,06,10,55,21.50
2017,07,06,10,56,21.60
2017,07,06,10,57,21.70
2017,07,06,10,58,21.80
2017,07,06,10,59,21.80
2017,07,06,11,00,21.80
2017,07,06,11,01,21.80
2017,07,06,11,02,21.70
2017,07,06,11,03,21.70
2017,07,06,11,04,21.70
2017,07,06,11,05,21.80
2017,07,06,11,06,21.80
2017,07,06,11,07,21.80
2017,07,06,11,08,21.80
2017,07,06,11,09,21.70
2017,07,06,11,10,21.70
2017,07,06,11,11,21.80
2017,07,06,11,12,21.80
2017,07,06,11,13,21.80
2017,07,06,11,14,21.80
2017,07,06,11,15,21.80
2017,07,06,11,16,21.80
2017,07,06,11,17,21.80
2017,07,06,11,18,21.70
2017,07,06,11,19,21.80
2017,07,06,11,20,21.80
2017,07,06,11,21,21.80
2017,07,06,11,22,21.90
2017,07,06,11,23,22.00
2017,07,06,11,24,22.10
2017,07,06,11,25,22.10
2017,07,06,11,26,22.10
2017,07,06,11,27,22.20
2017,07,06,11,28,22.10
2017,07,06,11,29,22.10
2017,07,06,11,30,22.10
2017,07,06,11,31,22.10
2017,07,06,11,32,22.10
2017,07,06,11,33,22.20
2017,07,06,11,34,22.20
2017,07,06,11,35,22.20
2017,07,06,11,36,22.20
2017,07,06,11,37,22.20
2017,07,06,11,38,22.30
2017,07,06,11,39,22.30
2017,07,06,11,40,22.30
2017,07,06,11,41,22.30
2017,07,06,11,42,22.30
2017,07,06,11,43,22.40
2017,07,06,11,44,22.40
2017,07,06,11,45,22.30
2017,07,06,11,46,22.40
2017,07,06,11,47,22.60
2017,07,06,11,48,22.60
2017,07,06,11,49,22.70
2017,07,06,11,50,22.70
2017,07,06,11,51,22.70
2017,07,06,11,52,22.70
2017,07,06,11,53,22.80
2017,07,06,11,54,22.70
2017,07,06,11,55,22.60
2017,07,06,11,56,22.50
2017,07,06,11,57,22.50
2017,07,06,11,58,22.60
2017,07,06,11,59,22.80
2017,07,06,12,00,22.90
2017,07,06,12,01,22.90
2017,07,06,12,02,22.80
2017,07,06,12,03,22.80
2017,07,06,12,04,22.90
2017,07,06,12,05,23.00
2017,07,06,12,06,23.00
2017,07,06,12,07,22.90
2017,07,06,12,08,22.80
2017,07,06,12,09,22.90
2017,07,06,12,10,22.90
2017,07,06,12,11,22.90
2017,07,06,12,12,23.00
2017,07,06,12,13,23.10
2017,07,06,12,14,23.20
2017,07,06,12,15,23.30
2017,07,06,12,16,23.20
2017,07,06,12,17,23.20
2017,07,06,12,18,23.20
2017,07,06,12,19,23.20
2017,07,06,12,20,23.20
2017,07,06,12,21,23.20
2017,07,06,12,22,23.30
2017,07,06,12,23,23.30
2017,07,06,12,24,23.40
2017,07,06,12,25,23.50
2017,07,06,12,26,23.60
2017,07,06,12,27,23.60
2017,07,06,12,28,23.60
2017,07,06,12,29,23.60
2017,07,06,12,30,23.60
2017,07,06,12,31,23.50
2017,07,06,12,32,23.40
2017,07,06,12,33,23.40
2017,07,06,12,34,23.40
2017,07,06,12,35,23.40
2017,07,06,12,36,23.40
2017,07,06,12,37,23.20
2017,07,06,12,38,23.10
2017,07,06,12,39,23.10
2017,07,06,12,40,23.20
2017,07,06,12,41,23.30
2017,07,06,12,42,23.40
2017,07,06,12,43,23.50
2017,07,06,12,44,23.60
2017,07,06,12,45,23.80
2017,07,06,12,46,23.90
2017,07,06,12,47,23.90
2017,07,06,12,48,23.90
2017,07,06,12,49,23.90
2017,07,06,12,50,23.90
2017,07,06,12,51,23.90
2017,07,06,12,52,23.90
2017,07,06,12,53,24.00
2017,07,06,12,54,24.00
2017,07,06,12,55,24.00
2017,07,06,12,56,24.00
2017,07,06,12,57,23.90
2017,07,06,12,58,23.80
2017,07,06,12,59,23.80
2017,07,06,13,00,23.80
2017,07,06,13,01,23.70
2017,07,06,13,02,23.60
2017,07,06,13,03,23.60
2017,07,06,13,04,23.60
2017,07,06,13,05,23.60
2017,07,06,13,06,23.50
2017,07,06,13,07,23.50
2017,07,06,13,08,23.50
2017,07,06,13,09,23.60
2017,07,06,13,10,23.70
2017,07,06,13,11,23.70
2017,07,06,13,12,23.80
2017,07,06,13,13,23.80
2017,07,06,13,14,24.00
2017,07,06,13,15,24.10
2017,07,06,13,16,24.20
2017,07,06,13,17,24.20
2017,07,06,13,18,24.10
2017,07,06,13,19,24.00
2017,07,06,13,20,23.90
2017,07,06,13,21,23.90
2017,07,06,13,22,23.90
2017,07,06,13,23,23.90
2017,07,06,13,24,23.80
2017,07,06,13,25,23.80
2017,07,06,13,26,23.90
2017,07,06,13,27,23.90
2017,07,06,13,28,23.80
2017,07,06,13,29,23.80
2017,07,06,13,30,23.90
2017,07,06,13,31,23.90
2017,07,06,13,32,23.80
2017,07,06,13,33,23.80
2017,07,06,13,34,23.70
2017,07,06,13,35,23.70
2017,07,06,13,36,23.70
2017,07,06,13,37,23.70
2017,07,06,13,38,23.70
2017,07,06,13,39,23.70
2017,07,06,13,40,23.80
2017,07,06,13,41,23.80
2017,07,06,13,42,23.80
2017,07,06,13,43,23.80
2017,07,06,13,44,23.80
2017,07,06,13,45,23.90
2017,07,06,13,46,23.90
2017,07,06,13,47,23.90
2017,07,06,13,48,23.90
2017,07,06,13,49,23.80
2017,07,06,13,50,23.80
2017,07,06,13,51,23.70
2017,07,06,13,52,23.70
2017,07,06,13,53,23.70
2017,07,06,13,54,23.70
2017,07,06,13,55,23.80
2017,07,06,13,56,23.80
2017,07,06,13,57,23.80
2017,07,06,13,58,23.70
2017,07,06,13,59,23.70
2017,07,06,14,00,23.80
2017,07,06,14,01,23.80
2017,07,06,14,02,23.90
2017,07,06,14,03,23.80
2017,07,06,14,04,23.80
2017,07,06,14,05,23.80
2017,07,06,14,06,23.90
2017,07,06,14,07,23.90
2017,07,06,14,08,23.90
2017,07,06,14,09,23.90
2017,07,06,14,10,23.90
2017,07,06,14,11,23.90
2017,07,06,14,12,23.90
2017,07,06,14,13,24.00
2017,07,06,14,14,24.00
2017,07,06,14,15,24.10
2017,07,06,14,16,24.10
2017,07,06,14,17,24.10
2017,07,06,14,18,24.10
2017,07,06,14,19,24.10
2017,07,06,14,20,24.10
2017,07,06,14,21,24.00
2017,07,06,14,22,24.00
2017,07,06,14,23,24.10
2017,07,06,14,24,24.20
2017,07,06,14,25,24.30
2017,07,06,14,26,24.30
2017,07,06,14,27,24.40
2017,07,06,14,28,24.40
2017,07,06,14,29,24.40
2017,07,06,14,30,24.40
2017,07,06,14,31,24.30
2017,07,06,14,32,24.30
2017,07,06,14,33,24.20
2017,07,06,14,34,24.20
2017,07,06,14,35,24.20
2017,07,06,14,36,24.10
2017,07,06,14,37,24.10
2017,07,06,14,38,24.10
2017,07,06,14,39,24.10
2017,07,06,14,40,24.20
2017,07,06,14,41,24.10
2017,07,06,14,42,24.10
2017,07,06,14,43,24.00
2017,07,06,14,44,23.90
2017,07,06,14,45,24.00
2017,07,06,14,46,24.10
2017,07,06,14,47,24.00
2017,07,06,14,48,23.90
2017,07,06,14,49,24.00
2017,07,06,14,50,24.00
2017,07,06,14,51,24.00
2017,07,06,14,52,24.00
2017,07,06,14,53,23.90
2017,07,06,14,54,23.90
2017,07,06,14,55,23.90
2017,07,06,14,56,23.80
2017,07,06,14,57,23.80
2017,07,06,14,58,23.60
2017,07,06,14,59,23.50
2017,07,06,15,00,23.40
2017,07,06,15,01,23.40
2017,07,06,15,02,23.40
2017,07,06,15,03,23.40
2017,07,06,15,04,23.40
2017,07,06,15,05,23.40
2017,07,06,15,06,23.40
2017,07,06,15,07,23.40
2017,07,06,15,08,23.40
2017,07,06,15,09,23.40
2017,07,06,15,10,23.40
2017,07,06,15,11,23.50
2017,07,06,15,12,23.50
2017,07,06,15,13,23.70
2017,07,06,15,14,23.80
2017,07,06,15,15,23.80
2017,07,06,15,16,23.80
2017,07,06,15,17,23.80
2017,07,06,15,18,23.80
2017,07,06,15,19,23.90
2017,07,06,15,20,23.90
2017,07,06,15,21,23.90
2017,07,06,15,22,23.90
2017,07,06,15,23,23.80
2017,07,06,15,24,23.80
2017,07,06,15,25,23.90
2017,07,06,15,26,23.90
2017,07,06,15,27,23.90
2017,07,06,15,28,23.90
2017,07,06,15,29,23.90
2017,07,06,15,30,23.90
2017,07,06,15,31,23.90
2017,07,06,15,32,23.90
2017,07,06,15,33,23.80
2017,07,06,15,34,23.80
2017,07,06,15,35,23.80
2017,07,06,15,36,23.80
2017,07,06,15,37,23.80
2017,07,06,15,38,23.80
2017,07,06,15,39,23.80
2017,07,06,15,40,23.80
2017,07,06,15,41,23.70
2017,07,06,15,42,23.70
2017,07,06,15,43,23.60
2017,07,06,15,44,23.40
2017,07,06,15,45,23.40
2017,07,06,15,46,23.40
2017,07,06,15,47,23.40
2017,07,06,15,48,23.40
2017,07,06,15,49,23.50
2017,07,06,15,50,23.50
2017,07,06,15,51,23.60
2017,07,06,15,52,23.60
2017,07,06,15,53,23.60
2017,07,06,15,54,23.60
2017,07,06,15,55,23.50
2017,07,06,15,56,23.50
2017,07,06,15,57,23.60
2017,07,06,15,58,23.60
2017,07,06,15,59,23.60
2017,07,06,16,00,23.60
2017,07,06,16,01,23.50
2017,07,06,16,02,23.40
2017,07,06,16,03,23.40
2017,07,06,16,04,23.40
2017,07,06,16,05,23.50
2017,07,06,16,06,23.60
2017,07,06,16,07,23.60
2017,07,06,16,08,23.50
2017,07,06,16,09,23.40
2017,07,06,16,10,23.50
2017,07,06,16,11,23.50
2017,07,06,16,12,23.60
2017,07,06,16,13,23.60
2017,07,06,16,14,23.60
2017,07,06,16,15,23.60
2017,07,06,16,16,23.70
2017,07,06,16,17,23.70
2017,07,06,16,18,23.70
2017,07,06,16,19,23.70
2017,07,06,16,20,23.80
2017,07,06,16,21,23.90
2017,07,06,16,22,24.00
2017,07,06,16,23,24.10
2017,07,06,16,24,24.30
2017,07,06,16,25,24.30
2017,07,06,16,26,24.20
2017,07,06,16,27,24.20
2017,07,06,16,28,24.20
2017,07,06,16,29,24.20
2017,07,06,16,30,24.30
2017,07,06,16,31,24.40
2017,07,06,16,32,24.50
2017,07,06,16,33,24.50
2017,07,06,16,34,24.50
2017,07,06,16,35,24.50
2017,07,06,16,36,24.50
2017,07,06,16,37,24.40
2017,07,06,16,38,24.40
2017,07,06,16,39,24.50
2017,07,06,16,40,24.50
2017,07,06,16,41,24.50
2017,07,06,16,42,24.50
2017,07,06,16,43,24.50
2017,07,06,16,44,24.40
2017,07,06,16,45,24.30
2017,07,06,16,46,24.30
2017,07,06,16,47,24.20
2017,07,06,16,48,24.20
2017,07,06,16,49,24.20
2017,07,06,16,50,24.20
2017,07,06,16,51,24.20
2017,07,06,16,52,24.20
2017,07,06,16,53,24.20
2017,07,06,16,54,24.20
2017,07,06,16,55,24.20
2017,07,06,16,56,24.20
2017,07,06,16,57,24.20
2017,07,06,16,58,24.30
2017,07,06,16,59,24.40
2017,07,06,17,00,24.50
2017,07,06,17,01,24.60
2017,07,06,17,02,24.80
2017,07,06,17,03,24.80
2017,07,06,17,04,24.90
2017,07,06,17,05,24.90
2017,07,06,17,06,25.00
2017,07,06,17,07,25.00
2017,07,06,17,08,25.00
2017,07,06,17,09,25.00
2017,07,06,17,10,25.20
2017,07,06,17,11,25.30
2017,07,06,17,12,25.30
2017,07,06,17,13,25.40
2017,07,06,17,14,25.40
2017,07,06,17,15,25.40
2017,07,06,17,16,25.40
2017,07,06,17,17,25.40
2017,07,06,17,18,25.40
2017,07,06,17,19,25.40